Temp
30 28 26 25 28 27 30 31 32 31 30 31 32 31 30 29 28 25 24 24 24 23 24 24 24 24 24 24 23 24 24 23 23 23 23 23 23 23 22 22 22 22 22 22 21 21 21 21 21
31 29 27 28 27 27 29 31 30 31 32 31 31 30 28 26 26 23 23 22 24 24 24 24 24 24 24 24 24 24 24 23 23 23 23 22 22 22 22 22 22 22 21 22 21 21 21 21 21
31 31 29 28 27 29 29 31 31 32 32 32 31 31 29 26 25 25 23 23 23 24 24 24 24 24 24 23 23 23 23 23 23 23 23 22 22 21 22 22 22 22 21 21 21 21 21 21 21
32 28 27 29 30 32 32 32 32 32 32 32 31 29 29 29 27 25 23 24 24 24 24 24 24 24 24 23 23 23 23 23 22 22 22 22 21 21 22 22 22 21 21 21 21 21 21 22 21
30 27 27 28 32 33 33 33 33 31 31 31 31 28 27 27 27 24 24 24 25 24 24 24 24 24 23 23 23 23 23 22 22 22 22 22 22 22 22 22 22 22 21 21 21 21 21 22 21
27 28 27 27 29 35 34 34 33 32 31 30 29 28 27 26 25 24 24 24 25 25 25 24 24 24 23 23 23 23 22 22 21 22 22 22 22 22 22 22 22 22 21 21 22 21 21 22 22
27 26 27 29 31 34 34 34 32 31 30 30 30 27 27 27 26 25 25 25 24 25 25 25 24 24 23 23 22 22 21 22 22 22 22 22 22 22 22 22 22 22 22 22 22 22 21 22 22
27 25 29 30 32 33 35 34 33 32 32 32 31 27 27 26 25 25 24 24 25 24 23 24 24 24 23 23 23 23 22 23 23 22 22 22 22 22 22 22 22 22 22 22 22 22 22 22 22
29 28 31 32 33 33 33 33 34 34 31 32 32 30 29 25 24 24 23 23 23 23 24 23 23 24 24 23 23 23 22 22 22 21 22 22 22 22 22 22 23 22 22 22 22 21 21 22 22
29 26 30 32 34 34 34 34 33 31 30 30 29 30 28 26 25 24 23 22 22 23 24 24 24 24 24 23 23 23 22 22 22 22 22 22 23 22 22 23 23 22 22 21 22 22 21 21 22
29 29 30 32 33 35 34 34 33 30 29 29 28 29 29 27 26 25 24 23 23 24 24 24 25 25 25 24 24 23 23 23 23 23 22 23 23 22 22 22 23 23 22 22 22 22 22 21 22
33 32 33 35 35 35 33 33 32 33 31 31 30 30 28 27 26 26 25 24 24 23 24 25 25 24 24 24 23 24 23 23 23 23 23 23 23 23 23 23 23 23 23 23 22 22 22 22 21
33 36 34 35 37 37 34 34 33 33 31 31 31 30 28 27 27 27 26 25 25 23 24 25 24 25 24 24 23 23 23 23 23 23 23 23 23 23 23 23 23 23 23 23 22 22 22 22 22
36 36 36 37 37 37 35 34 34 32 32 31 30 29 28 28 27 27 27 26 25 25 25 25 24 24 24 24 24 24 23 24 23 23 24 23 24 24 24 24 24 23 23 23 23 23 22 22 22
36 36 34 35 36 36 34 34 32 32 32 31 30 30 29 28 28 27 28 27 27 27 26 26 24 24 24 24 23 23 23 24 23 24 24 24 24 24 24 24 24 23 23 23 22 22 22 22 22
33 32 32 34 35 36 34 32 33 32 32 31 31 30 30 28 28 29 29 28 28 26 25 25 24 25 23 23 24 22 23 23 23 24 24 25 25 24 24 24 24 24 23 23 23 22 22 22 21
28 30 31 33 34 35 35 33 33 32 32 31 31 30 30 28 27 29 29 30 27 26 26 23 23 23 23 24 24 23 24 23 23 24 25 25 25 24 24 24 23 23 23 23 22 22 22 22 22
30 32 33 33 36 36 34 33 34 32 32 31 31 30 28 28 28 29 30 29 27 25 23 23 24 25 23 23 23 23 24 24 23 24 24 24 25 24 24 24 23 23 22 22 22 21 21 22 22
32 33 32 34 36 36 35 35 34 32 32 31 29 28 28 28 28 28 30 28 23 22 23 24 24 23 23 24 21 22 25 24 25 25 23 24 24 24 24 23 23 22 22 22 22 21 21 21 21
35 34 33 33 36 35 35 35 33 31 32 32 30 29 28 27 27 28 28 26 24 21 22 22 23 23 24 23 21 25 26 26 25 24 24 23 24 24 23 22 22 21 21 21 21 21 21 21 21
33 33 33 32 34 33 33 30 32 33 31 31 30 29 29 28 27 26 26 25 23 21 22 22 22 23 23 22 21 23 25 25 24 24 23 24 24 23 22 22 22 21 21 21 21 21 21 21 20
33 33 34 33 30 30 31 28 29 28 30 31 30 29 29 27 27 25 24 24 23 22 22 23 23 24 23 22 23 23 23 22 22 22 23 23 22 22 22 21 21 20 20 20 20 20 20 20 20
32 34 35 34 29 29 29 28 28 28 30 29 29 30 29 27 27 25 24 26 24 23 23 23 23 23 23 23 24 23 22 22 22 23 23 22 21 21 21 20 20 20 20 20 20 20 20 20 20
35 32 28 26 26 26 28 28 27 29 31 30 30 30 29 27 27 25 26 24 23 23 23 22 22 23 22 22 23 22 22 21 22 22 22 21 21 20 20 20 20 20 21 21 20 20 20 20 21
32 26 24 27 25 26 28 28 27 30 30 32 29 29 28 28 26 24 23 23 24 23 23 23 22 22 22 22 21 21 22 22 22 21 21 21 20 19 19 19 20 20 21 20 20 20 21 21 21
31 27 24 28 26 27 28 29 29 29 30 32 31 29 28 27 25 24 23 23 23 23 24 23 23 22 22 21 22 22 22 22 21 21 20 19 19 19 19 19 19 19 19 20 20 20 21 21 21
32 29 28 26 26 26 26 30 30 28 26 25 28 29 27 26 25 24 23 24 24 23 24 24 23 23 22 22 22 22 22 21 21 20 20 19 20 19 19 19 19 19 19 19 20 20 20 20 20
31 31 30 23 29 29 26 29 27 26 27 27 26 25 23 24 25 24 24 24 24 24 24 24 23 23 23 22 22 22 22 21 20 20 19 19 20 19 19 19 19 19 19 19 19 19 19 19 19
31 30 26 25 24 25 25 25 25 24 25 25 25 24 22 23 24 22 23 24 25 24 24 24 24 23 23 22 22 22 21 21 20 19 19 20 19 19 19 18 18 17 17 18 18 18 18 18 18
30 30 26 25 28 24 24 24 22 23 22 24 26 26 23 22 23 22 23 24 24 23 23 23 23 22 21 22 22 22 21 21 20 20 20 19 19 18 18 18 17 17 17 17 17 17 17 17 17
Height
755 757 758 763 787 795 801 793 773 782 781 768 762 771 778 775 785 812 790 795 799 803 807 809 810 813 814 816 817 818 820 821 823 824 826 826 828 828 830 831 832 834 835 836 836 837 839 839 839
751 753 756 759 803 819 812 782 790 777 770 764 767 773 779 794 781 790 794 799 800 803 807 809 812 814 816 818 818 819 821 822 823 824 826 827 829 831 833 833 834 835 836 837 837 838 838 839 839
746 748 758 779 803 813 809 784 781 773 763 764 771 769 779 791 787 790 794 798 802 804 807 810 813 815 817 818 820 821 822 823 824 825 827 828 830 832 834 835 836 837 838 838 838 838 837 837 838
746 748 761 794 799 782 779 776 770 773 770 766 770 785 779 782 783 786 795 799 802 805 807 811 813 816 818 819 821 822 823 825 827 828 829 830 831 833 834 835 836 838 838 838 838 838 838 838 839
748 762 798 806 788 774 767 763 762 774 775 776 773 791 790 785 786 792 796 799 800 805 809 811 813 816 818 820 821 823 825 826 828 829 830 831 832 833 835 836 837 838 838 839 838 838 839 841 843
768 770 813 822 802 770 764 759 762 769 773 778 783 787 794 789 791 797 798 801 802 804 808 811 813 815 817 820 822 824 826 828 830 830 831 832 833 834 835 836 838 839 839 840 839 839 840 841 844
778 793 813 803 797 780 768 753 766 772 775 779 775 794 794 793 794 796 798 801 804 805 807 810 813 815 818 821 824 825 827 828 830 832 832 834 836 836 837 837 838 839 839 839 838 839 840 841 844
768 785 796 795 793 787 760 758 758 763 772 767 769 794 798 792 792 796 800 803 805 807 810 811 814 816 818 821 822 825 826 827 828 830 831 832 834 836 838 838 839 839 839 839 839 839 839 840 842
757 790 799 789 786 779 761 764 758 756 768 766 767 773 782 789 793 797 801 805 806 809 811 813 814 816 819 821 823 825 827 828 830 831 832 832 833 835 836 837 838 839 839 839 838 839 839 840 841
777 804 792 769 764 772 758 759 762 771 773 778 775 778 785 791 793 797 801 804 805 807 810 812 813 815 818 821 823 826 828 830 830 831 832 833 834 834 837 838 838 838 838 838 838 839 840 840 841
777 795 773 765 758 758 762 762 759 772 786 773 779 780 785 790 794 797 801 801 803 805 809 810 812 814 816 818 820 824 826 827 828 830 831 831 832 834 835 836 837 838 837 838 837 838 839 840 840
776 765 762 753 749 751 762 760 766 762 767 763 766 773 781 788 793 795 799 801 802 805 806 809 813 815 817 818 820 822 823 824 826 827 828 830 831 831 833 834 835 836 835 837 837 837 837 838 839
772 756 753 748 743 744 752 758 761 764 761 767 771 777 783 787 790 794 794 797 799 804 806 809 812 815 818 820 821 822 821 822 824 826 827 827 827 829 831 832 833 832 834 834 835 836 837 837 837
755 752 752 743 747 745 756 759 757 765 761 767 770 775 780 784 787 791 793 795 798 801 804 806 814 819 821 823 824 823 823 823 823 825 825 826 826 826 827 828 830 830 831 832 832 833 834 834 835
750 763 760 754 750 755 749 771 770 757 761 767 771 772 775 779 783 785 787 791 795 797 801 809 812 813 817 820 821 821 821 821 821 823 824 823 824 824 826 827 828 828 829 829 829 830 831 832 833
772 776 795 762 753 748 755 793 763 756 761 769 769 770 773 776 778 781 783 787 790 795 800 804 806 808 812 818 819 819 817 818 819 820 821 820 820 821 824 825 824 824 825 825 825 826 827 828 829
796 809 796 776 746 750 760 781 761 757 759 767 767 767 771 775 778 780 782 784 787 793 797 798 801 809 809 810 813 815 815 815 816 816 817 819 818 820 822 824 822 823 823 822 821 822 823 824 826
810 799 786 784 759 755 769 771 757 756 759 763 765 766 770 773 774 778 780 784 787 793 798 802 800 803 807 806 802 807 809 810 812 813 815 817 816 820 821 819 819 820 819 819 818 818 819 820 820
785 785 789 769 752 759 765 765 759 759 760 765 766 767 769 770 773 777 780 783 790 794 797 798 802 802 802 798 798 801 803 806 809 811 814 816 817 817 817 815 815 816 815 815 814 814 815 815 817
772 784 788 770 754 764 765 765 760 756 755 754 761 766 768 772 774 776 781 783 788 792 794 799 801 800 801 801 797 796 798 801 806 809 810 813 815 815 814 813 813 814 813 811 811 811 813 813 814
782 785 784 788 768 765 772 788 773 759 752 752 755 758 762 766 772 777 779 782 787 792 794 799 800 800 803 802 799 794 798 798 806 809 810 813 813 812 813 811 810 810 808 807 807 807 808 809 810
790 768 771 776 792 813 780 832 790 775 763 759 762 762 761 766 770 774 779 784 788 791 794 798 801 802 804 804 803 804 807 808 811 812 812 812 811 811 810 810 808 806 803 802 803 803 804 805 805
783 761 767 770 796 800 801 821 801 779 779 775 768 762 762 766 768 775 778 782 787 793 795 799 803 805 807 808 809 810 812 812 813 813 813 811 811 810 809 808 806 803 800 799 798 798 800 802 802
752 773 786 799 811 840 810 816 814 791 774 771 767 765 765 769 771 777 781 786 790 795 798 802 804 807 810 812 813 814 815 814 814 814 814 812 810 809 807 806 804 800 799 797 795 795 796 798 799
767 807 849 843 849 848 805 816 808 776 764 756 766 767 764 766 770 778 781 786 792 795 799 802 805 806 809 813 815 816 817 815 814 813 812 811 809 808 807 806 802 800 799 797 795 792 793 795 795
781 801 846 850 856 838 805 820 801 770 759 748 748 754 761 766 771 776 782 789 791 794 799 803 807 808 809 812 814 816 818 816 815 814 813 812 811 811 809 806 804 801 800 797 794 793 793 793 794
779 802 788 822 825 839 826 796 780 773 779 774 769 767 767 768 772 776 785 790 791 795 797 802 809 811 813 814 813 815 816 817 816 815 814 814 814 812 810 808 805 805 801 798 795 794 793 794 794
766 767 805 830 836 838 836 812 818 800 790 775 783 783 783 782 782 778 785 786 789 794 800 803 806 807 812 816 816 815 816 817 817 816 815 816 815 813 812 811 808 806 803 801 799 796 795 795 795
777 786 798 810 828 846 852 837 805 800 790 785 788 780 782 783 783 783 781 785 788 794 801 805 807 808 810 814 816 816 815 817 818 817 818 818 817 816 816 812 811 809 806 805 803 800 799 799 799
763 774 794 827 821 826 834 837 801 794 787 779 771 770 765 771 773 783 786 783 790 797 801 803 805 805 811 813 815 814 815 816 818 818 819 822 820 818 817 814 812 811 810 808 806 804 803 803 801
Wind_Speed
14 3 12 7 4 5 3 5 6 9 10 12 11 7 5 7 2 3 16 20 31 28 24 23 23 22 20 19 17 17 18 18 18 18 16 15 15 15 15 14 13 12 10 9 9 10 10 10 13
16 7 6 1 4 6 3 9 15 13 12 18 17 14 11 4 8 13 15 26 33 29 26 24 23 22 20 18 17 17 17 17 18 17 16 14 14 13 12 12 11 10 9 9 10 11 12 10 12
8 7 3 3 3 6 5 14 14 11 12 10 6 5 5 6 14 15 23 33 31 29 27 24 22 21 20 18 17 17 16 16 16 15 15 14 14 13 10 10 9 9 8 7 9 10 11 12 14
8 5 4 3 9 4 10 16 17 14 11 10 10 8 5 11 12 18 34 34 32 28 26 24 22 20 19 18 17 16 16 15 14 13 12 12 13 11 9 8 8 7 7 8 8 9 9 10 14
7 4 5 5 4 6 6 19 14 9 7 11 5 4 4 5 26 36 37 32 34 28 25 23 21 20 19 18 17 16 15 14 13 13 12 10 12 10 8 7 7 7 7 7 8 7 7 8 11
4 3 5 4 7 7 4 11 13 14 14 14 12 10 4 24 31 29 29 32 30 29 25 22 20 20 19 18 16 15 15 13 12 12 11 11 11 11 9 8 7 7 8 8 7 7 6 6 10
7 4 4 5 4 3 8 8 13 16 14 8 14 8 8 14 29 31 34 30 29 29 26 23 21 19 18 17 16 15 15 14 12 11 11 9 8 7 7 7 7 7 8 8 8 7 7 7 11
4 4 3 4 1 5 5 4 13 16 5 15 16 7 9 17 33 35 30 27 28 26 24 24 22 19 18 17 15 15 14 14 14 13 11 11 9 8 6 6 7 6 7 7 8 8 8 8 13
3 4 3 2 3 4 6 9 5 9 12 4 6 11 18 33 32 29 25 25 25 23 22 22 21 19 17 16 14 14 13 12 11 11 11 11 10 8 8 7 6 6 6 7 8 9 9 9 11
4 3 8 5 1 5 10 16 8 6 9 6 12 17 28 32 30 24 18 17 21 24 24 24 22 20 17 16 14 14 12 11 11 11 10 10 11 11 7 7 8 7 7 8 8 9 8 9 10
5 5 6 7 14 9 8 10 3 15 0 14 22 21 20 25 24 24 23 27 30 29 28 27 24 21 19 18 16 15 14 12 11 11 10 9 10 11 9 13 12 10 10 10 10 9 10 12 12
4 8 7 7 8 8 8 4 6 3 7 17 22 22 15 17 17 22 23 27 28 31 30 26 23 21 18 16 16 14 14 13 13 12 12 12 11 11 10 13 12 14 11 12 12 12 9 11 13
4 4 6 7 5 5 10 7 7 2 14 16 18 16 16 15 17 23 29 29 30 29 29 27 25 21 18 15 13 13 12 13 12 13 14 15 13 13 10 12 13 15 15 16 15 16 13 12 13
5 3 4 4 2 2 6 4 9 7 17 19 20 17 15 17 20 19 21 25 29 29 28 28 22 16 9 8 9 10 11 10 12 16 15 17 16 16 15 14 15 15 15 16 15 15 18 17 16
4 3 7 9 1 3 11 4 8 17 19 20 19 18 15 18 23 22 30 27 32 32 29 17 15 15 10 7 8 6 8 10 11 14 16 18 18 19 17 16 16 16 18 16 17 18 18 19 18
6 5 2 9 3 6 4 6 2 18 20 19 18 17 15 14 22 24 29 33 32 26 21 19 17 16 13 15 10 5 4 8 11 14 20 16 18 20 19 18 16 15 16 18 22 21 20 20 22
6 5 6 10 12 6 4 4 5 14 18 18 17 16 13 12 9 21 27 26 28 26 27 25 19 14 14 15 13 6 8 17 11 12 13 12 11 15 17 16 17 16 15 15 20 20 22 20 19
5 5 3 5 3 5 2 5 5 11 17 18 15 11 11 13 13 24 25 19 28 28 28 23 21 7 8 9 15 14 14 16 8 6 5 11 7 10 14 14 16 15 15 17 18 19 21 20 19
6 1 5 3 4 4 5 4 8 8 7 10 11 11 12 13 10 25 30 22 28 29 28 18 18 12 12 14 3 10 6 7 5 7 8 7 8 10 11 12 12 12 12 15 19 20 20 22 18
3 3 6 4 4 1 4 5 6 9 13 16 14 13 12 7 9 13 22 23 29 31 22 18 16 19 13 9 16 13 5 8 5 8 8 5 7 6 8 10 11 12 13 11 12 17 19 20 19
4 3 4 8 2 4 4 8 7 4 3 11 10 11 13 15 13 10 15 24 26 27 21 19 22 21 14 12 5 14 9 5 8 12 7 4 7 6 6 9 13 14 12 12 12 12 15 19 19
2 2 3 4 5 1 4 4 6 9 6 13 8 12 13 10 11 8 13 20 24 22 22 21 24 22 18 11 17 13 13 10 9 7 4 5 4 2 6 10 13 14 11 11 13 11 11 16 18
8 1 4 3 4 5 9 4 7 6 7 2 6 12 9 9 14 11 12 20 24 24 24 24 26 23 16 10 18 14 9 10 8 2 7 11 6 7 10 10 10 10 8 10 11 10 11 15 18
1 5 8 6 4 4 5 4 5 1 4 5 3 4 7 10 11 9 17 25 25 23 23 23 24 23 18 13 11 12 9 7 9 8 9 7 8 12 12 11 9 7 6 6 7 6 9 12 17
5 8 4 4 4 5 1 2 8 5 7 9 9 9 10 13 13 11 10 17 23 26 24 21 21 19 18 16 12 8 8 8 8 7 7 9 12 14 13 12 12 10 4 4 5 3 2 6 11
4 8 6 4 3 5 5 3 5 5 8 1 7 10 12 11 10 12 12 18 21 26 24 21 21 19 17 17 14 8 10 8 9 8 9 11 13 10 11 12 12 12 6 7 7 5 2 2 3
2 3 6 5 1 3 3 3 5 9 14 16 13 4 9 10 11 13 14 19 23 25 25 22 17 17 18 18 15 13 11 10 10 9 10 13 9 10 11 11 13 14 14 12 9 7 7 6 4
8 4 2 3 1 2 5 2 3 6 3 9 10 10 12 12 3 10 12 20 24 27 23 20 20 20 19 16 15 14 12 10 9 10 12 12 9 11 12 12 13 13 15 16 17 17 14 12 11
1 2 6 5 5 5 2 5 6 6 3 5 6 8 7 5 1 3 11 19 24 24 23 19 15 13 11 16 15 14 14 12 11 14 12 9 9 11 10 11 14 14 15 15 16 17 18 18 16
4 6 6 5 5 2 5 4 7 5 6 5 5 9 6 4 3 10 11 22 20 17 20 13 13 17 12 17 16 14 13 15 12 13 10 6 11 12 11 12 16 18 17 17 20 20 19 19 17
Wind_Direction
332 300 167 161 67 68 56 50 117 100 68 74 72 70 84 35 113 160 134 160 153 148 151 150 146 146 144 138 130 128 128 128 130 130 126 128 131 133 133 134 133 131 131 143 145 139 138 138 133
331 138 163 87 91 85 300 90 84 98 123 101 95 88 60 74 75 117 111 144 150 147 149 149 146 146 145 142 136 136 135 134 136 135 132 130 133 134 131 133 131 126 127 133 138 151 145 151 146
345 157 91 84 122 124 143 119 122 118 109 96 95 55 71 104 117 137 145 149 147 146 147 147 147 149 147 146 144 142 143 141 142 140 136 137 138 140 140 137 132 128 130 131 143 155 156 157 159
12 15 28 74 122 201 122 135 125 118 94 101 110 71 55 146 131 146 149 149 147 142 144 147 150 152 152 152 151 149 149 146 144 142 138 140 141 144 147 145 142 141 141 147 155 159 160 172 163
51 45 40 355 86 115 127 144 135 101 88 102 101 89 64 72 132 139 147 153 147 146 145 148 151 153 155 155 156 154 152 152 151 147 152 152 142 148 158 157 164 161 160 164 166 166 173 183 168
52 88 44 342 311 118 106 133 123 111 117 106 93 107 85 129 129 143 149 152 152 149 151 153 155 155 155 158 158 157 154 154 156 158 157 155 157 167 176 172 172 173 173 171 172 167 180 178 167
106 90 181 224 314 342 151 133 131 134 139 130 139 115 136 143 144 154 157 154 156 155 158 159 159 159 158 158 159 157 159 161 161 161 157 164 172 178 175 169 172 179 181 182 185 180 176 175 165
95 108 344 127 82 264 143 98 149 144 137 133 142 138 167 140 145 155 151 153 158 161 163 160 163 163 162 163 164 164 168 169 167 167 172 174 179 181 191 196 187 194 201 199 195 197 188 179 173
155 77 97 223 307 287 155 114 30 92 129 188 181 137 141 141 140 141 137 144 155 164 167 167 168 166 166 167 167 171 175 174 175 182 184 185 185 194 207 217 208 208 210 210 215 211 201 188 185
86 92 221 209 102 213 154 126 142 106 107 86 96 119 129 140 137 140 148 152 161 172 177 179 176 172 171 175 177 181 183 188 191 200 201 209 206 203 215 233 235 232 232 223 218 220 214 202 200
166 181 206 264 247 197 154 148 91 124 70 156 143 147 145 144 147 150 163 168 176 181 184 186 182 180 179 183 186 191 192 201 205 211 214 211 223 226 252 238 240 241 243 232 224 218 218 214 209
200 203 169 244 182 121 159 111 130 201 188 161 148 151 149 154 156 161 168 177 181 184 187 186 186 183 188 189 191 195 201 207 213 213 220 224 226 241 267 230 239 237 244 240 233 225 222 223 223
270 310 213 264 139 148 135 198 159 201 131 146 143 151 153 165 172 173 174 178 183 186 192 192 191 188 190 201 208 210 216 220 229 236 242 243 235 242 231 226 247 230 237 238 230 236 228 217 217
256 340 302 345 227 248 112 139 124 120 139 152 156 165 161 172 181 189 185 185 184 188 193 195 189 183 195 226 240 229 236 252 245 243 248 248 249 242 235 233 236 220 226 233 234 232 230 232 226
312 6 344 307 75 148 114 86 172 155 155 160 171 173 172 179 181 182 195 193 198 200 193 186 170 173 166 221 217 210 245 249 254 252 251 249 245 242 239 238 239 235 238 242 231 232 237 239 222
11 49 340 268 196 228 87 219 226 163 161 171 177 181 183 181 186 188 195 198 203 196 176 173 172 166 172 230 256 264 352 299 276 269 248 265 248 242 251 246 252 256 240 247 244 242 243 239 230
356 260 225 302 193 156 134 218 197 176 173 176 181 186 181 175 174 178 180 191 190 189 181 163 141 142 185 203 236 233 322 328 287 280 262 267 263 250 259 264 272 273 255 251 246 245 245 243 240
259 304 271 224 238 149 120 209 197 182 174 179 185 183 169 169 181 175 175 172 177 171 159 148 167 170 172 211 233 233 273 302 276 283 303 275 253 252 266 274 283 282 274 265 255 243 239 247 260
247 290 331 327 234 122 209 188 198 175 172 177 182 170 168 171 175 167 176 170 153 155 158 164 165 166 181 227 231 234 242 214 230 307 315 289 277 303 298 299 296 289 280 270 256 250 239 247 252
28 355 314 320 354 25 230 289 197 164 184 178 174 168 161 140 152 164 163 152 154 160 168 163 166 167 187 155 145 127 184 209 242 320 335 307 302 307 308 322 313 295 281 274 264 246 236 240 227
326 262 303 258 342 11 61 331 340 325 145 180 173 159 164 162 154 155 135 135 150 164 173 166 169 178 170 153 157 147 170 188 289 315 310 334 329 321 312 316 313 306 294 277 277 261 247 233 221
258 203 255 42 59 287 56 285 322 317 185 176 152 163 175 158 154 148 137 135 141 154 154 154 167 173 165 158 160 164 183 221 285 289 0 353 352 50 352 331 318 310 299 286 278 266 252 233 215
236 303 306 19 67 43 347 62 275 345 60 60 182 188 169 156 153 147 144 130 134 143 148 158 169 182 179 157 178 176 221 257 281 89 64 85 65 14 347 338 323 318 316 297 283 265 249 235 219
189 49 30 47 69 15 242 123 283 212 209 168 170 124 146 149 143 138 136 133 134 143 149 160 175 190 194 196 188 211 243 168 131 90 95 69 19 1 8 2 348 332 330 333 321 283 247 240 236
73 57 358 357 20 219 33 90 241 269 212 174 147 202 153 154 148 146 136 136 139 140 151 163 173 182 195 206 218 213 184 136 115 106 75 38 25 25 16 12 20 8 30 20 17 20 247 255 253
199 144 151 198 204 252 324 243 267 314 308 162 174 156 147 148 146 144 147 145 144 148 153 162 166 163 170 168 154 147 142 118 109 89 54 56 50 35 32 40 41 36 60 53 51 45 19 281 272
231 141 191 120 3 54 276 332 342 26 23 32 33 52 151 145 149 146 129 147 146 152 161 167 172 159 163 155 143 133 131 125 112 84 74 73 53 47 41 42 53 59 64 67 74 79 73 98 97
154 173 46 8 123 283 318 206 236 27 325 83 48 59 53 33 49 133 137 152 154 163 165 167 174 178 164 157 153 143 128 124 108 83 90 78 62 60 52 51 55 63 66 67 72 78 81 94 85
320 307 60 119 134 164 183 270 301 184 146 113 172 103 93 54 74 200 153 153 163 163 171 171 182 162 181 164 159 145 129 132 109 88 91 81 74 78 72 61 60 66 71 72 77 78 80 81 83
177 210 141 125 266 179 150 262 310 231 179 184 189 166 159 145 172 133 172 150 142 153 180 172 187 158 182 173 169 149 140 141 120 102 99 97 98 83 75 75 74 72 76 84 80 80 84 82 81